Probability
0 0 0 0 0 0 0 0 0 0 0 0 0 1 2 1 0 0 1 2 4 4 4 2 1 0 0 0 0 0 1 2 2 1 0 0 0 0 0 0 0 0 0
0 0 0 0 0 0 0 0 0 0 0 0 0 1 2 1 0 0 0 1 3 4 4 3 1 0 0 0 0 0 1 3 2 1 0 0 0 0 0 0 0 0 0
0 0 0 0 0 0 0 0 0 0 0 0 0 0 1 1 0 0 0 0 1 2 3 3 2 1 0 0 0 0 1 2 2 1 0 0 0 0 0 0 0 0 0
0 0 0 0 0 0 0 0 0 0 0 0 0 0 0 0 0 0 0 0 0 1 1 2 3 2 1 0 0 0 1 1 1 1 0 0 0 0 0 0 0 0 0
0 0 0 0 0 0 0 0 0 0 0 0 0 0 0 0 0 0 0 0 0 0 0 1 2 3 2 1 0 0 0 0 0 0 0 0 0 0 0 0 0 0 0
0 0 0 0 0 0 0 0 0 0 0 0 0 0 0 0 0 0 0 0 0 0 0 0 1 2 2 1 0 0 0 0 0 0 0 0 0 0 0 0 0 0 0
0 0 0 0 0 0 0 0 0 0 0 0 0 0 0 0 0 0 0 0 0 0 0 0 0 1 1 0 0 0 0 0 0 0 0 0 0 0 0 0 0 0 0
0 0 0 0 0 0 0 0 0 0 0 0 0 0 0 0 0 0 0 0 0 0 0 0 0 0 0 0 0 0 0 0 0 0 0 0 0 0 0 0 0 0 0
0 0 0 0 0 0 0 0 0 0 0 0 0 0 0 0 0 0 0 0 0 0 0 0 0 0 0 0 0 0 0 0 0 0 0 0 0 0 0 0 0 0 0
0 0 0 0 0 0 0 0 0 0 0 0 0 0 0 0 0 0 0 0 0 0 0 0 0 0 0 0 0 0 0 0 0 0 0 0 0 0 0 0 0 0 0
0 0 0 0 0 0 0 0 0 0 0 0 0 0 0 0 0 0 0 0 0 0 0 0 0 0 0 0 0 0 0 0 0 0 0 0 0 0 0 0 0 0 0
0 0 0 0 0 0 0 0 0 0 0 0 0 0 0 0 0 0 0 0 0 0 0 0 0 0 0 0 0 0 0 0 0 0 0 0 0 0 0 0 0 0 0
0 0 0 0 0 0 0 0 0 0 0 0 0 0 0 0 0 0 0 0 0 0 0 0 0 0 0 0 0 0 0 0 0 0 0 0 0 0 0 0 0 0 0
0 0 0 0 0 0 0 0 0 0 0 0 0 0 0 0 0 0 0 0 0 0 0 0 0 0 0 0 0 0 0 0 0 0 0 0 0 0 0 0 0 0 0
0 0 0 0 0 0 0 0 0 0 0 0 0 0 0 0 0 0 0 0 0 0 0 0 0 0 0 0 0 0 0 0 0 0 0 0 0 0 0 0 0 0 0
0 0 0 0 0 0 0 0 0 0 0 0 0 0 0 0 0 0 0 0 0 0 0 0 0 0 0 0 0 0 0 0 0 0 0 0 0 0 0 0 0 0 0
0 0 0 0 0 0 0 0 0 0 0 0 0 0 0 0 0 0 0 0 0 0 0 0 0 0 0 0 0 0 0 0 0 0 0 0 0 0 0 0 0 0 0
0 0 0 0 0 0 0 0 0 0 0 0 0 0 0 0 0 0 0 0 0 0 0 0 0 0 0 0 0 0 0 0 0 0 0 0 0 0 0 0 0 0 0
0 0 0 0 0 0 0 0 0 0 0 0 0 0 0 0 0 0 0 0 0 0 0 0 0 0 0 0 0 0 0 0 0 0 0 0 0 0 0 0 0 0 0
0 0 0 0 0 0 0 0 0 0 0 0 0 0 0 0 0 0 0 0 0 0 0 0 0 0 0 0 0 0 0 0 0 0 0 0 0 0 0 0 0 0 0
0 0 0 0 0 0 0 0 0 0 0 0 0 0 0 0 0 0 0 0 0 0 0 0 0 0 0 0 0 0 0 0 0 0 0 0 0 0 0 0 0 0 0
0 0 0 0 0 0 0 0 0 0 0 0 0 0 0 0 0 0 0 0 0 0 0 0 0 0 0 0 0 0 0 0 0 0 0 0 0 0 0 0 0 0 0
0 0 0 0 0 0 0 0 0 0 0 0 0 0 0 0 0 0 0 0 0 0 0 0 0 0 0 0 0 0 0 0 0 0 0 0 0 0 0 0 0 0 0
0 0 0 0 0 0 0 0 0 0 0 0 0 0 0 0 0 0 0 0 0 0 0 0 0 0 0 0 0 0 0 0 0 0 0 0 0 0 0 0 0 0 0
0 0 0 0 0 0 0 0 0 0 0 0 0 0 0 0 0 0 0 0 0 0 0 0 0 0 0 0 0 0 0 0 0 0 0 0 0 0 0 0 0 0 0
0 0 0 0 0 0 0 0 0 0 0 0 0 0 0 0 0 0 0 0 0 0 0 0 0 0 0 0 0 0 0 0 0 0 0 0 0 0 0 0 0 0 0
Wind_Speed
6 6 7 6 5 5 5 5 5 4 3 2 1 1 1 1 1 1 1 1 1 1 1 1 1 0 0 0 0 0 0 0 1 1 1 1 1 1 0 0 0 0 0
6 7 6 6 6 6 6 6 5 5 4 3 2 1 1 1 1 1 1 2 2 2 2 2 1 1 1 1 1 1 0 0 1 1 0 1 1 1 1 0 0 1 1
6 7 7 7 6 6 6 6 5 5 4 3 2 1 0 0 1 1 1 2 2 2 2 2 2 2 2 2 2 2 2 1 1 1 1 1 2 1 1 1 1 1 1
5 6 6 7 7 6 5 5 5 5 4 4 4 4 3 2 2 2 2 2 2 2 2 3 3 3 2 2 2 2 1 2 2 1 1 1 1 1 1 1 1 1 1
4 4 5 6 5 5 5 5 5 4 4 4 5 4 3 2 2 2 2 2 3 3 2 3 3 3 2 3 2 2 2 2 2 2 1 1 1 1 2 2 2 1 1
3 3 3 4 4 4 4 4 5 4 4 4 4 4 4 3 3 3 3 3 2 2 3 3 3 3 3 3 3 2 3 3 3 2 2 2 2 2 1 2 3 2 2
3 3 3 4 4 4 4 4 4 4 4 4 4 4 4 4 4 4 4 3 2 2 3 3 3 3 3 3 3 3 3 3 4 4 3 3 2 2 2 2 2 3 2
3 3 3 3 3 4 4 4 4 4 4 4 4 4 4 3 3 3 3 3 3 3 3 3 3 3 3 3 3 3 3 3 4 4 4 3 3 2 2 2 2 3 3
2 2 2 2 2 2 3 3 4 4 4 4 4 4 4 4 3 3 3 3 3 3 3 3 3 3 4 4 4 3 4 3 3 4 4 3 3 3 2 2 2 3 4
1 1 2 2 2 2 2 2 3 4 4 4 4 4 4 4 3 3 4 3 3 3 3 4 4 4 4 4 4 3 4 4 4 3 5 4 3 3 2 3 3 3 4
1 1 1 1 1 1 2 2 2 3 3 4 3 3 3 3 3 3 3 3 3 3 4 4 4 4 4 4 4 4 4 5 5 4 5 5 4 3 3 3 3 3 3
1 1 1 1 1 2 2 2 3 3 3 3 3 3 3 3 3 3 3 3 3 3 4 4 4 4 4 4 5 5 5 5 6 5 5 6 5 5 4 4 4 4 3
2 1 0 0 1 2 2 2 3 3 3 3 3 3 3 3 4 4 3 3 4 4 4 4 4 5 5 5 5 5 5 5 5 6 6 6 6 6 5 5 5 4 4
2 2 1 1 2 2 2 2 3 3 3 3 3 4 4 4 4 3 4 4 4 4 5 5 5 5 5 5 5 5 5 5 5 6 6 7 7 7 6 6 6 4 4
3 2 3 3 3 3 3 3 3 3 3 3 3 4 3 3 3 4 4 4 4 5 5 4 4 5 5 5 5 5 6 6 6 6 6 7 8 9 8 7 6 5 5
3 3 3 3 4 4 4 4 4 3 3 3 4 4 4 4 4 4 4 4 4 4 4 5 5 5 5 7 9 6 5 6 6 6 6 7 8 10 11 12 11 10 8
4 4 4 3 4 4 4 4 4 3 3 4 4 4 4 4 4 4 4 4 4 4 5 5 5 5 6 8 9 9 6 6 6 6 6 6 6 8 6 8 10 10 12
4 5 5 4 4 4 4 4 3 3 4 4 4 4 4 5 4 4 5 4 4 4 4 5 5 5 6 8 9 9 6 6 6 7 7 7 6 7 6 6 6 7 7
5 5 4 4 4 4 4 3 3 3 4 4 4 4 4 4 4 5 5 4 3 4 4 4 5 5 6 9 9 8 5 5 6 7 7 7 7 10 10 6 6 6 6
4 4 4 3 4 4 3 3 3 3 4 5 4 4 4 5 5 5 4 3 3 4 4 5 5 5 6 9 10 9 5 5 5 5 6 10 10 11 11 7 6 7 6
5 4 4 4 4 4 3 3 4 4 4 4 4 4 4 4 4 4 3 3 4 4 4 5 5 5 7 8 10 10 5 5 5 5 5 5 10 11 11 9 7 8 6
5 5 4 5 4 3 3 4 4 4 3 3 4 4 4 4 3 3 3 3 4 4 4 4 4 4 5 7 9 11 10 7 6 5 5 5 9 9 9 8 7 8 6
6 5 4 5 4 3 2 4 4 3 3 3 4 4 4 3 3 3 3 3 3 3 3 3 4 4 3 5 10 11 10 10 6 5 8 8 9 8 6 8 8 6 4
6 5 5 5 5 4 3 3 3 3 3 3 3 3 3 3 3 3 3 3 3 3 4 4 4 4 3 3 4 4 5 7 6 4 6 8 9 7 6 5 4 3 4
6 4 4 5 5 5 4 3 3 2 3 3 3 3 3 3 3 3 3 3 4 5 5 4 4 4 4 6 8 5 4 4 5 4 3 3 3 4 4 4 3 3 3
6 5 5 5 5 5 5 4 3 2 3 3 2 2 2 2 2 2 2 4 4 6 7 7 6 5 7 8 9 9 9 9 8 5 4 5 4 4 4 4 4 4 4
Wind_Direction
193 179 173 169 167 168 169 172 171 170 159 166 175 177 197 194 194 209 210 187 176 164 155 153 154 156 197 195 209 106 97 78 46 46 347 312 244 187 158 92 93 312 291
188 181 171 167 172 177 179 179 180 177 175 182 191 196 186 217 215 210 231 214 193 182 187 175 177 181 189 211 204 119 152 210 80 92 63 326 316 326 357 37 75 355 351
188 182 176 178 179 185 187 190 185 182 182 178 169 166 132 182 223 208 228 232 213 202 197 198 186 188 186 205 219 184 168 183 194 132 142 166 217 308 295 321 30 25 1
188 183 179 180 185 188 186 187 184 185 184 178 178 179 192 214 229 213 215 231 221 217 213 202 196 196 197 202 223 210 186 174 193 202 226 210 178 191 280 288 291 321 324
183 182 180 180 181 179 180 185 185 188 188 187 186 194 208 221 218 204 207 227 223 213 216 209 198 198 202 203 210 218 198 192 195 200 221 257 278 208 205 251 257 283 285
168 166 165 159 166 170 173 178 186 191 190 193 195 203 208 207 209 219 211 220 218 213 213 222 211 205 202 203 209 209 212 210 206 210 210 212 219 224 230 243 244 260 273
154 156 155 157 164 170 174 179 188 200 197 197 204 210 214 209 210 215 213 216 213 216 213 222 220 216 211 205 207 212 216 222 214 211 219 223 236 227 241 244 253 270 276
160 163 166 165 172 180 182 185 197 209 201 204 214 216 214 212 217 222 217 222 218 216 212 217 221 224 219 215 207 219 221 226 224 223 221 228 235 231 228 221 232 269 270
177 172 162 158 165 178 190 191 198 214 212 211 215 217 215 216 220 223 221 227 222 217 206 214 218 223 223 216 205 215 220 220 230 225 221 226 233 230 230 222 207 217 251
174 170 159 158 169 185 198 203 207 215 218 215 217 226 218 217 215 215 222 229 230 220 205 216 221 221 225 223 211 213 218 218 228 233 224 224 227 229 226 226 231 232 237
194 189 194 182 183 194 208 222 229 229 226 218 219 223 221 221 214 215 219 230 240 225 214 215 216 220 222 221 215 219 220 223 227 236 234 230 224 225 226 225 228 239 239
254 214 205 191 217 223 221 224 234 235 231 218 218 222 222 217 219 224 222 227 235 237 225 219 220 223 225 221 221 221 223 225 228 230 232 237 231 229 229 226 229 235 238
313 333 349 234 263 259 244 236 239 241 235 218 212 216 221 219 225 228 222 224 231 240 231 221 224 228 226 224 228 226 225 226 231 231 228 233 233 230 228 229 231 235 243
303 313 309 287 276 272 261 254 250 240 242 226 216 219 225 225 227 224 221 222 225 235 230 227 226 229 229 228 228 228 229 227 233 235 236 233 233 233 227 229 229 231 235
315 323 312 303 294 285 276 266 261 247 242 233 229 232 233 232 233 226 224 225 228 237 234 231 230 231 228 228 226 224 225 225 230 234 238 238 238 243 241 233 224 224 227
307 305 299 295 289 286 281 277 265 257 245 240 242 240 235 233 232 230 225 226 230 234 231 230 228 232 237 238 237 235 229 228 230 234 235 238 239 244 251 248 243 235 227
299 300 292 282 281 279 272 264 261 258 248 243 243 241 234 232 231 231 228 226 229 232 234 231 226 230 236 237 239 240 238 231 232 235 233 238 239 242 237 244 250 251 251
297 299 294 289 283 278 275 267 260 254 248 244 240 240 238 237 235 232 232 231 233 231 233 234 230 233 237 239 241 243 240 235 235 235 232 233 233 236 238 230 233 237 245
291 286 284 281 282 280 276 271 264 255 250 250 247 242 239 239 237 236 236 233 234 235 236 238 232 234 237 239 243 244 236 238 240 238 235 233 229 238 244 234 228 237 246
305 298 301 302 295 290 285 278 271 262 253 254 256 252 243 239 237 236 238 235 234 236 238 244 237 235 236 240 243 242 231 237 240 238 238 240 240 238 238 226 220 230 236
311 313 313 303 292 291 286 275 271 265 267 269 261 256 248 242 241 237 234 226 230 231 235 243 243 237 238 242 243 243 234 232 233 233 235 238 246 244 241 241 230 239 242
318 320 312 301 296 287 274 272 271 273 276 271 262 257 254 249 244 234 233 228 221 226 233 239 245 242 238 244 245 246 248 243 233 233 232 236 248 249 248 245 246 252 252
317 317 311 309 308 298 276 270 279 281 279 269 259 255 258 254 249 236 229 229 222 224 235 237 243 248 244 245 251 250 249 251 247 240 242 245 246 247 246 252 253 247 229
320 323 325 321 318 319 309 283 288 285 271 265 257 252 251 251 246 242 233 227 224 227 233 237 242 250 252 248 245 235 239 248 254 249 243 246 246 246 245 246 245 233 228
323 328 323 317 316 322 320 310 300 293 286 272 253 248 246 244 243 246 243 241 233 233 240 240 238 240 246 249 259 258 237 228 232 231 221 219 216 213 212 219 221 220 228
326 327 323 318 317 320 316 312 306 292 281 277 256 246 249 246 244 250 275 272 267 267 266 264 264 262 262 268 271 271 265 257 247 240 220 216 213 212 212 213 215 214 220